Location: *
(41.0833°N, 9.3833°E)
Time: 13:31:26
(UTC+00:00)

Daily predictions for brighter satellites

Satellite Brightness Start Highest point End
(mag) Time Altitude Azimuth Time Altitude Azimuth Time Altitude Azimuth
Meteor 1-22 Rocket 4.4 18:02:37 10° SSE 18:07:36 43° E 18:12:35 10° NNE
Cosmos 1553 Rocket 4.0 18:04:16 10° S 18:10:19 85° E 18:16:26 10° N
FALCON 9 R/B 4.4 18:03:50 10° SW 18:10:24 41° SSE 18:40:54 12° ESE
Cosmos 2219 Rocket 4.4 18:05:49 10° WSW 18:10:43 29° NW 18:15:37 10° N
Cosmos 1674 2.6 18:08:09 10° N 18:11:53 64° E 18:15:34 10° SSE
Cosmos 1110 Rocket 4.3 18:06:47 10° N 18:11:54 50° ENE 18:16:56 10° SE
STARLINK-1237 3.8 18:09:14 10° WSW 18:13:17 75° NW 18:17:21 10° NE
Cosmos 1939 Rocket 3.4 18:12:01 10° S 18:15:58 63° W 18:19:53 10° NNW
STARLINK-1202 3.9 18:13:59 10° WSW 18:18:01 69° NW 18:22:05 10° NE
KORONAS-FOTON 3.7 18:15:05 10° N 18:18:55 73° E 18:22:41 10° SSE
Cosmos 1943 Rocket 3.8 18:15:40 10° N 18:19:09 17° NE 18:22:37 10° E
STARLINK-1125 4.5 18:16:33 10° NW 18:20:22 36° NNE 18:24:07 10° E
Cosmos 1980 4.5 18:16:15 10° SW 18:21:50 58° WNW 18:27:28 10° NNE
SL-14 R/B 4.2 18:19:21 10° NNE 18:22:57 31° ENE 18:26:32 10° SE
STARLINK-1246 4.1 18:21:04 10° WSW 18:25:06 61° NW 18:29:11 10° NE
STARLINK-1109 4.4 18:21:17 10° NW 18:25:08 39° NNE 18:28:41 12° E
CZ-2D R/B 4.3 18:22:11 10° S 18:25:54 49° W 18:29:37 10° NNW
Cosmos 2315 Rocket 4.4 18:20:47 10° SSE 18:26:35 41° E 18:32:27 10° NNE
Cosmos 1766 3.4 18:23:03 10° S 18:27:02 84° W 18:31:03 10° N
STARLINK-1091 4.3 18:26:05 10° NW 18:29:58 41° NNE 18:33:19 13° E
Orbus 7S? 2.5 18:27:58 10° NW 18:30:46 69° SW 18:33:10 10° SE
Meteor 2-8 Rocket 4.4 18:25:31 10° S 18:31:36 70° E 18:37:43 10° NNE
STARLINK-1224 4.3 18:28:22 10° WSW 18:32:20 54° NW 18:36:21 10° NE
STARLINK-1066 3.1 18:29:14 10° NW 18:32:22 56° NE 18:34:49 15° ESE
STARLINK-1081 3.1 18:29:43 10° NW 18:32:48 57° NE 18:35:12 15° ESE
ADEOS Rocket 3.8 18:26:33 10° N 18:33:09 60° WNW 18:39:04 10° SSW
USA 234 3.4 18:26:50 10° NE 18:33:12 53° SE 18:39:33 10° SSW
STARLINK-1070 3.1 18:30:10 10° NW 18:33:15 57° NE 18:35:38 15° ESE
H-2A R/B 2.3 18:28:27 10° SE 18:33:35 51° ENE 18:38:37 10° N
STARLINK-1069 3.1 18:30:35 10° NW 18:33:42 58° NE 18:36:06 16° ESE
STARLINK-1203 4.5 18:30:09 10° WSW 18:34:00 47° NNW 18:37:51 10° NE
STARLINK-1085 3.1 18:31:02 10° NW 18:34:10 59° NE 18:36:32 16° ESE
STARLINK-1086 3.0 18:31:32 10° NW 18:34:37 59° NE 18:36:56 16° ESE
HJ-1C 3.4 18:31:25 10° S 18:34:45 84° W 18:38:07 10° NNW
STARLINK-1095 3.0 18:31:58 10° NW 18:35:04 60° NE 18:37:22 16° ESE
Cosmos 1626 2.6 18:32:00 10° N 18:35:29 38° ENE 18:38:58 10° SSE
STARLINK-1077 3.0 18:32:25 10° NW 18:35:31 60° NE 18:37:48 16° ESE
SL-16 R/B 2.2 18:30:09 10° S 18:35:44 64° ESE 18:41:20 10° NNE
STARLINK-1075 3.0 18:32:52 10° NW 18:35:58 61° NE 18:38:14 17° ESE
CSL-04 Rocket 4.4 18:30:55 10° S 18:36:07 55° W 18:41:19 10° NNW
STARLINK-1093 3.0 18:33:16 10° NW 18:36:24 62° NE 18:38:42 17° ESE
STARLINK-1074 3.0 18:33:44 10° NW 18:36:51 63° NE 18:39:08 17° ESE
STARLINK-1225 4.5 18:33:02 10° WSW 18:36:59 50° NNW 18:40:58 10° NE
STARLINK-1087 2.9 18:34:12 10° NW 18:37:19 63° NE 18:39:31 17° ESE
STARLINK-1088 2.9 18:34:40 10° NW 18:37:46 64° NE 18:39:58 17° ESE
STARLINK-1115 3.0 18:35:05 10° NW 18:38:13 65° NE 18:40:27 17° ESE
STARLINK-1076 2.9 18:35:32 10° NW 18:38:40 65° NE 18:40:53 18° ESE
STARLINK-1092 2.9 18:35:59 10° NW 18:39:07 66° NE 18:41:18 18° ESE
STARLINK-1080 2.9 18:36:28 10° NW 18:39:34 67° NE 18:41:42 18° ESE
STARLINK-1090 2.9 18:36:54 10° NW 18:40:01 67° NE 18:42:08 18° ESE
STARLINK-1072 4.0 18:36:20 10° NW 18:40:17 49° NNE 18:43:08 17° ESE
Resurs 01 Rocket 3.4 18:38:55 13° E 18:40:18 14° ENE 18:42:39 10° NNE
STARLINK-1089 2.9 18:37:21 10° NW 18:40:28 68° NE 18:42:33 19° ESE
STARLINK-1107 2.9 18:37:49 10° NW 18:40:56 69° NE 18:43:00 19° ESE
FREGAT/IRIS 2.6 18:42:06 13° SSE 18:44:22 46° ENE 18:47:01 10° N
STARLINK-1096 3.9 18:40:41 10° NW 18:44:39 52° NNE 18:47:19 19° ESE
Abrixas rocket 2.1 18:44:31 10° SW 18:47:23 51° SE 18:49:06 21° ENE
Cosmos 1953 3.5 18:47:34 19° ESE 18:48:50 22° E 18:51:56 10° NE
Cosmos 1302 Rocket 4.3 18:44:10 10° N 18:49:17 50° ENE 18:53:40 14° SE
STARLINK-1079 3.8 18:45:43 10° NW 18:49:42 57° NE 18:52:10 21° ESE
Cosmos 304 Rocket 3.9 18:47:10 10° NNW 18:51:58 78° WSW 18:56:43 10° SSE
Cosmos 1709 Rocket 3.9 18:46:24 10° N 18:52:34 68° E 18:58:39 10° SSE
Cosmos 1269 Rocket 4.2 18:47:20 10° SSW 18:52:37 78° WNW 18:57:57 10° NNE
MONITOR-E 3.7 18:51:12 19° SSE 18:52:53 59° ENE 18:55:30 10° N
STARLINK-1116 3.7 18:50:08 10° NW 18:54:08 62° NE 18:56:26 24° ESE
SL-24 R/B 4.4 18:54:51 10° NNE 18:59:01 38° E 19:02:43 10° SSE
STARLINK-1118 4.3 18:58:23 10° W 19:00:04 19° SW 19:00:59 15° SSW
Cosmos 2251 Rocket 4.1 18:55:31 10° SSE 19:00:16 34° E 19:05:04 10° NE
Cosmos 1455 Rocket 3.9 18:56:07 10° SSW 19:00:20 54° W 19:04:37 10° N
ISS -1.5 18:58:44 10° NNW 19:01:02 17° NNE 19:02:41 13° NE
STARLINK-1094 3.5 18:59:22 10° NW 19:03:25 73° NE 19:05:21 29° ESE
Cosmos 2297 3.6 18:58:02 10° NNW 19:03:45 82° ENE 19:08:43 14° SSE
Cosmos 2237 Rocket 4.3 19:00:43 10° WSW 19:05:33 29° NW 19:10:25 10° N
STARLINK-1117 3.5 19:04:12 10° NW 19:08:16 80° NE 19:10:01 33° ESE
CZ-2C R/B 3.0 19:06:00 10° NNE 19:10:46 37° E 19:14:08 18° SSE
Cosmos 1626 Rocket 3.4 19:06:54 10° N 19:11:19 75° E 19:14:44 16° SSE
STARLINK-1078 3.5 19:08:39 10° NW 19:12:43 86° NE 19:14:17 36° SE
ARGOS 3.2 19:08:32 10° SSE 19:13:57 84° WSW 19:19:22 10° NNW
BREEZE-M DEB (TANK) 3.6 19:05:20 10° WNW 19:13:58 47° SW 19:15:44 23° SSE
Cosmos 2278 Rocket 4.5 19:10:01 10° NW 19:14:22 23° W 19:18:43 10° SSW
Cosmos 292 Rocket 4.5 19:13:05 10° N 19:17:30 35° ENE 19:18:32 32° E
STARLINK-1108 3.5 19:13:30 10° NW 19:17:34 87° SW 19:18:58 40° SE
Cosmos 1602 Rocket 3.5 19:14:52 10° N 19:19:20 71° E 19:21:45 26° SSE
IRIDIUM 104 4.4 19:15:39 10° N 19:20:48 56° E 19:23:42 25° SSE
USA 186 3.0 19:18:05 10° S 19:21:23 45° W 19:24:41 10° NNW
STARLINK-1071 3.5 19:18:09 10° NW 19:22:14 80° SW 19:23:26 44° SE
MetOp-A 4.1 19:21:25 24° SSE 19:24:38 68° ENE 19:29:58 10° N
MOS 1 Rocket 3.7 19:20:02 10° NNE 19:25:11 53° E 19:29:46 14° S
CZ-2C R/B 3.5 19:21:25 10° S 19:26:26 58° W 19:31:16 10° NNW
STARLINK-1110 3.6 19:22:37 10° NW 19:26:41 73° SW 19:27:43 47° SSE
STARLINK-1124 3.7 19:24:01 10° NW 19:28:09 71° SW 19:29:13 47° SSE
Cosmos 1470 3.6 19:26:13 10° SSW 19:29:58 50° W 19:33:46 10° N
IRIDIUM 114 4.2 19:24:46 10° N 19:29:59 70° E 19:32:51 27° SSE
SPOT 3 Rocket 3.5 19:29:48 23° SSE 19:33:06 88° ENE 19:38:22 10° NNW
STARLINK-1122 3.8 19:32:06 10° WNW 19:36:06 61° SW 19:36:48 51° S
Cosmos 1825 Rocket 4.1 19:34:10 10° N 19:37:53 40° ENE 19:37:53 40° ENE
IRIDIUM 103 4.2 19:33:55 10° N 19:39:10 85° E 19:42:00 28° S
SJ-6B 3.9 19:36:17 15° SSW 19:39:26 44° W 19:43:24 10° NNW
STARLINK-1119 4.4 19:36:23 10° NW 19:40:16 38° NNE 19:40:34 37° NE
STARLINK-1126 3.9 19:37:05 10° WNW 19:41:04 55° SW 19:41:36 50° SSW
Cosmos 1726 3.0 19:42:57 38° NNE 19:42:57 38° NNE 19:45:23 10° NNE
Cosmos 2369 Rocket 2.4 19:36:35 10° NNW 19:42:10 52° ENE 19:43:14 46° E
H-2A R/B 4.1 19:39:27 10° WSW 19:43:40 14° SW 19:45:59 10° SSW
STARLINK-1114 4.3 19:41:22 10° NW 19:45:19 41° NNE 19:45:24 41° NNE
STARLINK-1082 4.0 19:41:36 10° WNW 19:45:33 50° SW 19:45:54 48° SSW
NOSS 3-3 (A) 3.7 19:41:26 10° SSW 19:47:08 72° ESE 19:53:32 10° NE
Aureole 2 Rocket 3.6 19:43:42 10° N 19:45:57 34° N 19:45:57 34° N
NOSS 3-3 (C) 3.7 19:41:32 10° SSW 19:47:15 72° ESE 19:53:38 10° NE
Cosmos 1758 Rocket 3.5 19:43:51 10° N 19:47:54 63° NE 19:47:54 63° NE
STARLINK-1130 (DARKSAT) 4.3 19:46:18 10° NW 19:50:10 43° NNE 19:50:10 43° NNE
STARLINK-1100 4.2 19:46:33 10° WNW 19:50:27 45° SW 19:50:38 45° SW
Terra 4.2 19:53:53 10° NE 19:53:53 10° NE 19:53:58 10° NE
STARLINK-1083 4.4 19:51:21 10° WNW 19:55:11 41° SW 19:55:12 41° SW
Spot 2 Rocket 4.0 19:55:41 43° NE 19:55:41 43° NE 20:00:07 10° N
STARLINK-1084 4.3 19:51:15 10° NW 19:54:56 46° NNE 19:54:56 46° NNE
Cosmos 2184 Rocket 3.9 19:51:07 10° N 19:57:28 83° E 19:59:37 44° SSE
Cosmos 1606 Rocket 4.2 19:59:07 44° NNE 19:59:07 44° NNE 20:02:15 10° NNE
STARLINK-1098 4.3 19:56:13 10° NW 19:59:43 47° N 19:59:43 47° N
Cosmos 1943 3.0 20:01:04 55° S 20:02:13 71° ESE 20:07:53 10° NNE
Cosmos 1943 Rocket 2.1 19:58:00 10° NNW 20:03:34 80° WSW 20:04:35 60° S
Meteor 1-21 Rocket 4.5 19:58:24 10° NNW 20:03:54 65° W 20:06:08 36° SSW
Meteor 2-10 4.2 20:00:44 22° SSW 20:04:14 75° W 20:09:46 10° N
STARLINK-1123 4.4 20:01:11 10° NW 20:04:30 47° N 20:04:30 47° N
Resurs 1-3 4.3 20:05:32 42° SW 20:06:24 49° W 20:10:40 10° NNW
SL-8 R/B 4.4 20:02:52 10° WNW 20:07:26 43° NNE 20:07:34 43° NNE
ATLAS 2AS CENTAUR R/B 3.6 20:06:10 10° NNW 20:13:08 37° NE 20:14:21 35° ENE
H-2A R/B 4.4 20:09:23 10° SW 20:13:14 20° W 20:17:02 10° NW
USA 245 4.4 20:15:17 53° NNE 20:15:17 53° NNE 20:20:01 10° N
USA 234 4.0 20:09:54 10° NE 20:16:09 50° NNW 20:22:23 10° WSW
Resurs 01 Rocket 2.1 20:16:28 55° W 20:16:28 55° W 20:20:39 10° NNW
Cosmos 2154 Rocket 3.8 20:12:11 10° N 20:18:35 77° E 20:18:59 74° ESE
Cosmos 2228 4.3 20:22:40 35° N 20:22:40 35° N 20:25:17 10° N
Cosmos 1953 4.5 20:23:07 17° WSW 20:25:06 24° WNW 20:28:24 10° NNW
Nadezhda 1 Rocket 4.2 20:29:47 47° SSW 20:31:42 73° W 20:38:06 10° N
ISS -0.5 20:35:04 10° NW 20:35:39 14° NW 20:35:39 14° NW
ERS-1 Rocket 4.4 20:48:38 32° N 20:48:38 32° N 20:51:22 10° N
CZ-2C R/B 4.5 20:46:36 10° N 20:50:53 27° WNW 20:55:10 10° WSW
Aureole 1 Rocket 4.5 21:01:50 64° WSW 21:02:56 74° WNW 21:09:45 10° NNE
COSMOS 2455 4.2 21:11:33 10° NNW 21:15:09 32° N 21:15:09 32° N
Cosmos 2369 Rocket 4.2 21:21:31 10° NW 21:25:03 21° W 21:25:03 21° W
Terra 4.3 21:32:46 18° NNW 21:32:46 18° NNW 21:34:03 10° NNW
NOSS 3-4 (A) 4.3 21:24:43 10° NW 21:30:09 58° NNW 21:30:09 58° NNW
NOSS 3-4 (C) 4.3 21:24:49 10° NW 21:30:15 58° NNW 21:30:15 58° NNW
ATLAS 2AS CENTAUR R/B 3.9 21:57:12 10° NW 22:01:48 37° WNW 22:01:48 37° WNW
CZ-4C R/B 4.5 22:33:44 10° NNW 22:38:45 26° NNE 22:38:45 26° NNE
